User: anonymous   Login
Location: Unspecified
(0.0000°N, 0.0000°E)
Time: 14:37:50
(UTC+00:00)
Language:

P83-1 Hilat - Orbit

View from above orbital plane
View from above orbital plane
View from above satellite
View from above satellite

Ground track
Ground track

The orbit data is extracted from the following two-line orbital elements,

1 14154U 83063A   17084.95600257 +.00000108 +00000-0 +31378-4 0  9994
2 14154 082.0257 045.4327 0041536 039.2975 019.7761 14.36268978763573
Epoch (UTC): 25 March 2017 22:56:38
Eccentricity: 0.0041536
inclination: 82.0257°
perigee height: 741 km
apogee height: 800 km
right ascension of ascending node: 45.4327°
argument of perigee: 39.2975°
revolutions per day: 14.36268978
mean anomaly at epoch: 19.7761°
orbit number at epoch: 76357

The dashed part of the orbit path shows where the satellite is in the earth's shadow,  

DLR